Flag for U.S.A. Weather past 2 weeks in Paterson, New Jersey, U.S.A.

Now
75 °F

Clear.


Feels Like: 78 °F
Forecast: 66 / 87 °F
Wind: 3 mph from Southwest

Location: Essex County Airport

Current Time: Aug 1, 2015 at 11:02:22 PM

Latest Report: Aug 1, 2015 at 9:53 PM


Visibility: 10 mi

Pressure: 29.87 "Hg

Humidity: 54%

Dew point: 57 °F

Location of PatersonLocation

Historic Weather in Paterson — Graph

°F

Paterson temperature yesterday

Maximum temperature yesterday: 89 °F (at 2:53 PM)
Minimum temperature yesterday: 67 °F (at 4:53 AM)
Average temperature yesterday: 79 °F

Past Weeks' High & Low Weather Summary

 TemperatureHumidityPressure
High95 °F (Jul 19, 3:53 PM)94% (Jul 31, 1:53 AM)30.05 "Hg (Jul 31, 1:53 AM)
Low59 °F (Jul 23, 5:53 AM)26% (Jul 31, 4:53 PM)29.58 "Hg (Jul 21, 5:53 PM)
Average78 °F60%29.89 "Hg
* Reported Jul 17 9:53 PM — Aug 1 9:53 PM, Paterson, Weather by CustomWeather, © 2015

Note: Actual official high and low records may vary slightly from our data, if they occured in-between our weather recording intervals... More about our weather records

Advertising

Paterson weather history for previous 24 hours

 ConditionsComfort  
Time TempWeatherWind HumidityBarometerVisibility
9:53 PM
Sat, Aug 1
75 °FClear.3 mph54%29.87 "Hg10 mi
8:53 PM77 °FSunny.5 mph50%29.84 "Hg10 mi
7:53 PM82 °FSunny.6 mph43%29.82 "Hg10 mi
6:53 PM84 °FSunny.8 mph37%29.80 "Hg10 mi
5:53 PM86 °FSunny.14 mph36%29.80 "Hg10 mi
4:53 PM87 °FPassing clouds.10 mph33%29.79 "Hg10 mi
3:53 PM87 °FSunny.10 mph31%29.78 "Hg10 mi
2:53 PM87 °FScattered clouds.7 mph36%29.79 "Hg10 mi
1:53 PM87 °FPassing clouds.13 mph35%29.80 "Hg10 mi
12:53 PM85 °FPassing clouds.9 mph36%29.82 "Hg10 mi
11:53 AM84 °FSunny.10 mph43%29.82 "Hg10 mi
10:53 AM81 °FScattered clouds.8 mph53%29.82 "Hg10 mi
9:53 AM80 °FPartly sunny.9 mph51%29.82 "Hg10 mi
8:53 AM78 °FSunny.6 mph58%29.82 "Hg10 mi
7:53 AM74 °FSunny.3 mph64%29.81 "Hg10 mi
6:53 AM71 °FPassing clouds.No wind68%29.81 "Hg10 mi
5:53 AM70 °FClear.No wind68%29.81 "Hg10 mi
4:53 AM71 °FPassing clouds.No wind66%29.80 "Hg10 mi
3:53 AM71 °FClear.3 mph66%29.81 "Hg10 mi
2:53 AM71 °FPassing clouds.3 mph68%29.82 "Hg10 mi
1:53 AM71 °FPassing clouds.No wind68%29.83 "Hg10 mi
12:53 AM72 °FClear.No wind64%29.85 "Hg10 mi
11:53 PM
Fri, Jul 31
73 °FClear.No wind59%29.85 "Hg10 mi
Weather by CustomWeather, © 2015

See weather overviewHow to use our weather pages